This is the latest recevied weather packets stored in our database for station/object LA5PPA-1. If no packets are shown the sender has not sent any weather packets the latest 1 day(s).
| Time | Temp. | Humidity | Pressure | Rain* | Wind** | Luminosity | Snow |
|---|---|---|---|---|---|---|---|
| 1778089913 | 1.11° C | 48% | 1016.9 hPa | 0 mm | - | - | - |
| 1778089613 | 1.67° C | 46% | 1017.1 hPa | 0 mm | - | - | - |
| 1778089313 | 1.67° C | 45% | 1016.9 hPa | 0 mm | - | - | - |
| 1778089013 | 1.67° C | 42% | 1016.8 hPa | 0 mm | - | - | - |
| 1778088713 | 1.67° C | 42% | 1016.8 hPa | 0 mm | - | - | - |
| 1778088413 | 2.22° C | 41% | 1016.7 hPa | 0 mm | - | - | - |
| 1778088113 | 2.22° C | 39% | 1016.8 hPa | 0 mm | - | - | - |
| 1778087813 | 2.22° C | 40% | 1016.7 hPa | 0 mm | - | - | - |
| 1778087513 | 2.22° C | 41% | 1016.6 hPa | 0 mm | - | - | - |
| 1778086313 | 2.78° C | 41% | 1016.7 hPa | 0 mm | - | - | - |
| 1778086013 | 2.22° C | 41% | 1016.6 hPa | 0 mm | - | - | - |
| 1778085413 | 2.22° C | 42% | 1016.7 hPa | 0 mm | - | - | - |
| 1778074914 | 2.78° C | 39% | 1016.7 hPa | 0 mm | - | - | - |
| 1778066214 | 3.33° C | 42% | 1016.8 hPa | 0 mm | - | - | - |
| 1778065914 | 2.78° C | 43% | 1016.8 hPa | 0 mm | - | - | - |
| 1778065614 | 3.33° C | 41% | 1016.8 hPa | 0 mm | - | - | - |
| 1778065314 | 3.89° C | 39% | 1016.8 hPa | 0 mm | - | - | - |
| 1778065014 | 3.89° C | 40% | 1016.8 hPa | 0 mm | - | - | - |
| 1778064714 | 3.89° C | 39% | 1016.8 hPa | 0 mm | - | - | - |
| 1778064414 | 4.44° C | 38% | 1016.6 hPa | 0 mm | - | - | - |
| 1778064114 | 4.44° C | 39% | 1016.7 hPa | 0 mm | - | - | - |
| 1778063814 | 4.44° C | 41% | 1016.8 hPa | 0 mm | - | - | - |
| 1778063514 | 3.89° C | 41% | 1016.8 hPa | 0 mm | - | - | - |
| 1778063214 | 3.89° C | 40% | 1016.8 hPa | 0 mm | - | - | - |
| 1778062914 | 3.89° C | 41% | 1016.7 hPa | 0 mm | - | - | - |
* Rain latest hour (hover to see other rain measurements)
** Current wind speed in m/s (hover to see current wind gust speed)